Regional Weather Roundup
Issued by NWS Green Bay, WI

Home | Current Version | Previous Version | Graphics & Text | Print | Product List | Glossary Off
Versions: 1 2 3 4 5 6 7 8 9 10 11 12 13 14 15 16 17 18 19 20 21 22 23 24 25 26 27 28 29 30 31 32 33 34 35 36 37 38 39 40 41 42 43 44 45 46 47 48

889
ASUS43 KGRB 212000
RWRGRB

NORTH-CENTRAL AND NORTHEAST WISCONSIN REGIONAL WEATHER ROUNDUP
NATIONAL WEATHER SERVICE GREEN BAY WI
300 PM CDT THU MAY 21 2015

WIZ005-009-010>012-018-019-212100-
NORTH CENTRAL WISCONSIN

CITY           SKY/WX    TMP DP  RH WIND       PRES   REMARKS
IRONWOOD       SUNNY     59  30  33 N8G16     29.99S
MANITOWISH WTR NOT AVBL
ARBOR VITAE    NOT AVBL
EAGLE RIVER    NOT AVBL
LAND O LAKES   NOT AVBL
RHINELANDER    SUNNY     67  34  29 VRB7G22   29.95R
PHILLIPS       NOT AVBL
ANTIGO         NOT AVBL
TOMAHAWK       NOT AVBL
MERRILL        NOT AVBL
$$

WIZ013-073-212100-
NORTHEAST WISCONSIN

CITY           SKY/WX    TMP DP  RH WIND       PRES   REMARKS
IRON MOUNTAIN  MOSUNNY   69  34  27 NW12G26   29.90R
MARINETTE      PTSUNNY   57  37  47 E14       29.91R
$$

WIZ017-030-035>037-045-212100-
CENTRAL WISCONSIN

CITY           SKY/WX    TMP DP  RH WIND       PRES   REMARKS
MEDFORD        NOT AVBL
WAUSAU         MOSUNNY   72  35  25 W20G29    29.92F
MOSINEE        MOSUNNY   70  34  26 W17G28    29.95F
MARSHFIELD     MOSUNNY   71  35  26 W13G23    29.95S
WISC RAPIDS    PTSUNNY   73  31  21 W18G26    29.96F
STEVENS POINT  NOT AVBL
WAUPACA        NOT AVBL
SHAWANO        NOT AVBL
CLINTONVILLE   NOT AVBL
$$

WIZ038-039-048-051-212100-
FOX VALLEY

CITY           SKY/WX    TMP DP  RH WIND       PRES   REMARKS
NWS GREEN BAY  MOSUNNY   74  36  25 W17       29.90F
APPLETON       PTSUNNY   70  32  24 W15       29.93F
OSHKOSH        PTSUNNY   71  37  28 NW13      29.94F
FOND DU LAC    SUNNY     72  34  24 W10G21    29.95F
$$

WIZ022-050-052-212100-
EAST CENTRAL WISCONSIN

CITY           SKY/WX    TMP DP  RH WIND       PRES   REMARKS
STURGEON BAY   PTSUNNY   64  39  39 N8        29.91R
MANITOWOC      NOT AVBL
SHEBOYGAN      SUNNY     71  38  29 W16G22    29.94F
$$

LMZ563-521-522-541>543-212100-
LAKESHORE

STATION/POSITION TIME  TEMP    WIND        PRES    VSBY  WAVE
                       AIR SEA DIR/SP/G                  HT/PER
                 (UTC) (F)     (DEG/KT/KT) (MB)    (MI)  (FT/S)
SHEBOYGAN LKSHOR 1900   67     290/ 12/ 15 1014.3F
KEWAUNEE LKSHORE 1900   70     270/ 11/ 22 1011.8F
NORTHPORT PIER   1900   50     140/  7/  8 1013.2S
N MID LAKE BUOY  1850   40 36  220/  6/  8 1013.8R         1/ 3
SISTER BAY LKSHO 1902           60/ 11/ 13   N/A
CHAMBERS ISLAND  1900   58      50/ 12/ 15 1012.2F
MENOMINEE LKSHOR 1900           50/ 14/ 17 1012.4R
$$



USA.gov is the U.S. government's official web portal to all federal, state and local government web resources and services.